Date String (YYYY-MM-DD hh:mm:ss) UTC,Instrument flags,Ambient pressure (hPa),Sample flow (lpm),Bypass flow (lpm),Sample temperature (°C),Ambient temperature (°C),ASC tube jacket temperature (°C),LED temperature (°C),Box temperature (°C),Sample RH (%),Span deviation,Mass concentration (μg/m³),Mass concentration (μg/m³),Mass concentration (μg/m³)
DateTimeUTC,F1_M11,P_M11,Q1_M11,Q2_M11,T1_M11,T2_M11,T3_M11,T4_M11,T5_M11,U1_M11,ZSPAN_M11,X0_M11,X2_M11,X1_M11
2022-04-23 14:00:00,,0810.0,5.00,0.00,23.2,22.4,00.0,32.2,25.0,10.7,0000.0,0002.32,0000.27,0000.06
2022-04-23 14:01:00,,0810.2,5.00,0.00,23.2,22.4,00.0,32.2,25.0,10.8,0000.0,0002.27,0000.27,0000.06
2022-04-23 14:02:00,,0810.3,5.01,0.00,23.2,22.4,00.0,32.2,25.0,10.9,0000.0,0002.58,0000.27,0000.06
2022-04-23 14:03:00,,0810.5,5.00,0.00,23.2,22.4,00.0,32.2,25.0,11.0,0000.0,0002.66,0000.27,0000.06
2022-04-23 14:04:00,,0810.6,4.99,0.00,23.2,22.4,00.0,32.2,25.0,11.0,0000.0,0002.67,0000.27,0000.07
2022-04-23 14:05:00,,0810.5,5.01,0.00,23.2,22.5,00.0,32.2,25.1,11.1,0000.0,0003.94,0000.28,0000.07
2022-04-23 14:06:00,,0810.2,5.00,0.00,23.3,22.5,00.0,32.2,25.1,10.9,0000.0,0004.30,0000.28,0000.07
2022-04-23 14:07:00,,0810.1,5.00,0.00,23.3,22.5,00.0,32.2,25.1,10.9,0000.0,0004.25,0000.26,0000.07
2022-04-23 14:08:00,,0810.2,5.00,0.00,23.3,22.5,00.0,32.2,25.1,10.9,0000.0,0003.77,0000.24,0000.07
2022-04-23 14:09:00,,0810.2,5.00,0.00,23.3,22.6,00.0,32.2,25.1,11.2,0000.0,0003.58,0000.23,0000.07
2022-04-23 14:10:00,,0809.8,5.00,0.00,23.3,22.6,00.0,32.2,25.1,11.1,0000.0,0003.68,0000.29,0000.07
2022-04-23 14:11:00,,0810.2,5.02,0.00,23.3,22.5,00.0,32.2,25.1,10.7,0000.0,0003.83,0000.33,0000.07
2022-04-23 14:12:00,,0810.3,4.99,0.00,23.3,22.5,00.0,32.2,25.0,10.7,0000.0,0003.92,0000.34,0000.07
2022-04-23 14:13:00,,0810.3,4.99,0.00,23.3,22.5,00.0,32.2,25.0,10.6,0000.0,0002.84,0000.36,0000.07
2022-04-23 14:14:00,,0810.2,5.00,0.00,23.3,22.4,00.0,32.2,25.0,10.6,0000.0,0002.70,0000.39,0000.07
2022-04-23 14:15:00,,0810.1,5.00,0.00,23.3,22.4,00.0,32.2,25.0,10.7,0000.0,0002.71,0000.40,0000.07
2022-04-23 14:16:00,,0810.1,4.99,0.00,23.3,22.4,00.0,32.2,25.0,10.6,0000.0,0001.55,0000.40,0000.07
2022-04-23 14:17:00,,0810.2,5.00,0.00,23.3,22.3,00.0,32.2,25.0,10.7,0000.0,0001.35,0000.42,0000.07
2022-04-23 14:18:00,,0810.2,5.02,0.00,23.3,22.3,00.0,32.2,25.0,10.6,0000.0,0001.39,0000.44,0000.07
2022-04-23 14:19:00,,0810.1,5.01,0.00,23.3,22.3,00.0,32.2,25.0,10.6,0000.0,0001.38,0000.43,0000.07
2022-04-23 14:20:00,,0810.1,4.99,0.00,23.3,22.3,00.0,32.2,25.0,10.6,0000.0,0001.47,0000.44,0000.07
2022-04-23 14:21:00,,0810.3,4.99,0.00,23.2,22.3,00.0,32.2,25.0,10.6,0000.0,0001.44,0000.43,0000.07
2022-04-23 14:22:00,,0810.3,4.99,0.00,23.2,22.3,00.0,32.2,25.0,10.7,0000.0,0001.32,0000.40,0000.08
2022-04-23 14:23:00,,0810.3,5.02,0.00,23.2,22.3,00.0,32.2,25.0,10.6,0000.0,0001.23,0000.40,0000.08
2022-04-23 14:24:00,,0810.3,5.00,0.00,23.2,22.3,00.0,32.2,25.0,10.5,0000.0,0001.28,0000.39,0000.08
2022-04-23 14:25:00,,0810.4,4.99,0.00,23.2,22.3,00.0,32.2,24.9,10.6,0000.0,0001.49,0000.37,0000.08
2022-04-23 14:26:00,,0810.3,5.00,0.00,23.3,22.3,00.0,32.2,25.0,10.7,0000.0,0001.93,0000.37,0000.09
2022-04-23 14:27:00,,0810.0,4.99,0.00,23.3,22.3,00.0,32.2,25.0,10.6,0000.0,0002.97,0000.38,0000.08
2022-04-23 14:28:00,,0810.2,5.01,0.00,23.3,22.3,00.0,32.2,25.0,10.4,0000.0,0004.55,0000.42,0000.09
2022-04-23 14:29:00,,0810.2,4.99,0.00,23.3,22.3,00.0,32.2,25.0,10.4,0000.0,0004.86,0000.44,0000.10
2022-04-23 14:30:00,,0810.2,4.99,0.00,23.3,22.3,00.0,32.2,25.0,10.5,0000.0,0005.02,0000.47,0000.11
2022-04-23 14:31:00,,0810.2,5.00,0.00,23.3,22.3,00.0,32.2,25.0,10.5,0000.0,0005.02,0000.48,0000.11
2022-04-23 14:32:00,,0810.4,5.00,0.00,23.3,22.3,00.0,32.2,25.0,10.6,0000.0,0005.09,0000.47,0000.11
2022-04-23 14:33:00,,0810.5,5.00,0.00,23.3,22.3,00.0,32.2,25.0,10.6,0000.0,0005.16,0000.48,0000.11
2022-04-23 14:34:00,,0809.9,5.00,0.00,23.3,22.3,00.0,32.2,25.1,10.2,0000.0,0005.29,0000.49,0000.10
2022-04-23 14:35:00,,0810.1,5.00,0.00,23.3,22.3,00.0,32.2,25.0,10.0,0000.0,0005.28,0000.52,0000.11
2022-04-23 14:36:00,,0810.2,5.02,0.00,23.3,22.3,00.0,32.2,25.0,10.4,0000.0,0004.97,0000.49,0000.11
2022-04-23 14:37:00,,0810.1,4.99,0.00,23.3,22.3,00.0,32.2,25.0,10.5,0000.0,0004.53,0000.49,0000.11
2022-04-23 14:38:00,,0810.3,4.99,0.00,23.3,22.3,00.0,32.2,25.0,10.4,0000.0,0003.52,0000.52,0000.12
2022-04-23 14:39:00,,0810.2,5.01,0.00,23.2,22.3,00.0,32.2,24.9,10.5,0000.0,0001.86,0000.50,0000.12
2022-04-23 14:40:00,,0810.2,5.00,0.00,23.2,22.3,00.0,32.2,25.0,10.5,0000.0,0001.62,0000.51,0000.12
2022-04-23 14:41:00,,0810.3,5.00,0.00,23.2,22.2,00.0,32.2,25.0,10.5,0000.0,0001.48,0000.50,0000.12
2022-04-23 14:42:00,,0810.4,4.99,0.00,23.2,22.2,00.0,32.2,25.0,10.6,0000.0,0002.06,0000.52,0000.12
2022-04-23 14:43:00,,0810.3,5.01,0.00,23.2,22.2,00.0,32.2,25.0,10.4,0000.0,0002.26,0000.55,0000.13
2022-04-23 14:44:00,,0810.2,5.00,0.00,23.2,22.3,00.0,32.2,25.0,10.2,0000.0,0002.27,0000.56,0000.13
2022-04-23 14:45:00,,0810.3,4.99,0.00,23.2,22.2,00.0,32.2,24.9,10.2,0000.0,0002.51,0000.57,0000.13
2022-04-23 14:46:00,,0810.3,5.00,0.00,23.2,22.2,00.0,32.2,24.9,10.3,0000.0,0002.60,0000.58,0000.13
2022-04-23 14:47:00,,0810.5,4.99,0.00,23.1,22.1,00.0,32.2,24.8,10.4,0000.0,0002.81,0000.63,0000.14
2022-04-23 14:48:00,,0810.6,5.00,0.00,23.1,22.1,00.0,32.2,24.7,10.4,0000.0,0003.16,0000.62,0000.14
2022-04-23 14:49:00,,0810.6,5.00,0.00,23.1,22.1,00.0,32.2,24.8,10.5,0000.0,0003.37,0000.60,0000.13
2022-04-23 14:50:00,,0810.6,5.01,0.00,23.1,22.1,00.0,32.2,24.8,10.6,0000.0,0004.42,0000.56,0000.12
2022-04-23 14:51:00,,0810.5,4.99,0.00,23.1,22.1,00.0,32.2,24.8,10.8,0000.0,0005.22,0000.52,0000.12
2022-04-23 14:52:00,,0810.6,5.00,0.00,23.1,22.1,00.0,32.2,24.9,10.6,0000.0,0005.82,0000.54,0000.12
2022-04-23 14:53:00,,0810.6,4.98,0.00,23.1,22.1,00.0,32.2,24.8,10.6,0000.0,0005.81,0000.54,0000.12
2022-04-23 14:54:00,,0810.6,5.01,0.00,23.1,22.1,00.0,32.2,24.9,10.6,0000.0,0005.45,0000.51,0000.12
2022-04-23 14:55:00,,0810.8,5.00,0.00,23.2,22.1,00.0,32.2,24.9,10.7,0000.0,0005.53,0000.50,0000.11
2022-04-23 14:56:00,,0810.8,5.00,0.00,23.2,22.1,00.0,32.2,24.9,10.5,0000.0,0005.38,0000.50,0000.12
2022-04-23 14:57:00,,0810.6,5.00,0.00,23.2,22.2,00.0,32.2,24.9,10.1,0000.0,0005.68,0000.47,0000.12
2022-04-23 14:58:00,,0810.6,5.01,0.00,23.2,22.2,00.0,32.2,24.9,10.1,0000.0,0005.55,0000.44,0000.11
2022-04-23 14:59:00,,0810.5,5.00,0.00,23.2,22.2,00.0,32.2,24.8,10.2,0000.0,0005.24,0000.43,0000.11
